EW7423 Weather Reports


time (UTC)temp
F
wind
direction
speed
knots
gust
knots
rain 1hr
in
rain 24hr
in
rain mn
in
humidity
%
barometer
mb
20260510145911 74 0 0.0 0.0 0.00 0.33 0.00 93 1017.8
20260510145811 74 0 0.0 0.0 0.00 0.33 0.00 93 1017.8
20260510144910 74 0 0.0 0.0 0.00 0.33 0.00 93 1017.7
20260510144807 74 0 0.0 0.0 0.00 0.33 0.00 93 1017.7
20260510144334 74 0 0.0 0.9 0.00 0.33 0.00 93 1017.5
20260510143412 73 0 0.0 0.9 0.00 0.33 0.00 93 1017.5
20260510142909 73 0 0.0 0.0 0.00 0.33 0.00 93 1017.5
20260510142411 73 0 0.0 0.0 0.00 0.33 0.00 93 1017.4
20260510141911 73 0 0.0 0.0 0.00 0.33 0.00 93 1017.5
20260510141808 72 0 0.0 0.9 0.00 0.33 0.00 93 1017.5
20260510140908 72 0 0.0 0.9 0.00 0.33 0.00 93 1017.5
20260510140413 72 0 0.0 0.0 0.00 0.33 0.00 93 1017.5
20260510135904 72 0 0.0 1.7 0.00 0.33 0.00 93 1017.6
20260510135359 72 0 0.0 1.7 0.00 0.33 0.00 93 1017.3
20260510134854 72 0 0.0 0.9 0.00 0.33 0.00 93 1017.4
20260510134353 72 0 0.0 0.0 0.00 0.33 0.00 93 1017.4
20260510133842 72 0 0.0 0.0 0.00 0.33 0.00 93 1017.4
20260510133336 71 0 0.0 0.0 0.00 0.33 0.00 93 1017.2
20260510132830 71 0 0.0 0.9 0.00 0.33 0.00 93 1017.2
20260510132325 71 0 0.0 1.7 0.00 0.33 0.00 93 1017.2
20260510131818 71 0 0.0 1.7 0.00 0.33 0.00 93 1017.2
20260510131311 71 0 0.0 1.7 0.00 0.33 0.00 93 1017.2
20260510130805 71 0 0.0 0.0 0.00 0.33 0.00 93 1017.2
20260510130707 71 0 0.0 0.9 0.00 0.33 0.00 93 1017.2
20260510130046 71 0 0.0 1.7 0.00 0.33 0.00 93 1017.0
20260510125927 71 0 0.0 1.7 0.00 0.33 0.00 93 1017.1
20260510125139 70 0 0.0 0.0 0.00 0.33 0.00 93 1016.9
20260510124236 70 0 0.0 0.0 0.00 0.33 0.00 93 1016.9
20260510123730 70 0 0.0 0.0 0.00 0.33 0.00 93 1016.9
20260510123608 70 0 0.0 0.0 0.00 0.33 0.00 93 1016.8
20260510122718 69 0 0.0 0.0 0.00 0.33 0.00 93 1016.8
20260510122210 69 0 0.0 0.0 0.00 0.33 0.00 92 1016.7
20260510121703 69 0 0.0 0.0 0.00 0.33 0.00 92 1016.7
20260510121157 68 0 0.0 0.0 0.00 0.33 0.00 92 1016.6
20260510120652 68 0 0.0 0.0 0.00 0.33 0.00 92 1016.5
20260510120146 68 0 0.0 0.0 0.00 0.33 0.00 92 1016.5
20260510115640 68 0 0.0 0.0 0.00 0.33 0.00 92 1016.5
20260510115520 68 0 0.0 0.0 0.00 0.33 0.00 92 1016.4
20260510114634 68 0 0.0 0.0 0.00 0.33 0.00 92 1016.3
20260510114527 67 0 0.0 0.0 0.00 0.33 0.00 92 1016.1
20260510113612 67 0 0.0 0.0 0.00 0.33 0.00 92 1015.9
20260510113109 67 0 0.0 0.0 0.00 0.33 0.00 92 1015.9
20260510112601 67 0 0.0 0.0 0.00 0.33 0.00 92 1015.9
20260510112449 67 0 0.0 0.0 0.00 0.33 0.00 91 1015.9
20260510111551 67 0 0.0 0.0 0.00 0.33 0.00 91 1015.9
20260510111043 67 0 0.0 0.0 0.00 0.33 0.00 91 1015.8
20260510110550 67 0 0.0 0.0 0.00 0.33 0.00 91 1015.8
20260510110032 67 0 0.0 0.0 0.00 0.33 0.00 91 1015.6
20260510105525 67 0 0.0 0.0 0.00 0.33 0.00 91 1015.7
20260510105318 67 0 0.0 0.0 0.00 0.33 0.00 91 1015.4
20260510105148 67 0 0.0 0.0 0.00 0.33 0.00 91 1015.6
20260510104333 67 0 0.0 0.0 0.00 0.33 0.00 91 1015.2
20260510104148 67 0 0.0 0.0 0.00 0.33 0.00 91 1015.4
20260510102956 67 0 0.0 0.0 0.00 0.33 0.00 91 1015.1
20260510102449 67 0 0.0 0.0 0.00 0.33 0.00 91 1015.1
20260510102410 67 0 0.0 0.0 0.00 0.33 0.00 91 1015.0
20260510101438 67 0 0.0 0.0 0.00 0.33 0.00 91 1015.0
20260510101324 67 0 0.0 0.0 0.00 0.33 0.00 91 1015.0
20260510100426 67 0 0.0 0.0 0.00 0.33 0.00 91 1014.9
20260510095921 67 0 0.0 0.0 0.00 0.33 0.00 91 1014.9
20260510095414 67 0 0.0 0.0 0.00 0.33 0.00 91 1014.7
20260510094907 67 0 0.0 0.0 0.00 0.33 0.00 91 1014.7
20260510094402 67 0 0.0 0.0 0.00 0.33 0.00 91 1014.8
20260510093856 67 0 0.0 0.0 0.00 0.33 0.00 91 1014.8
20260510093349 66 0 0.0 0.0 0.00 0.33 0.00 91 1014.8
20260510092843 66 0 0.0 0.0 0.00 0.33 0.00 91 1014.7
20260510092338 66 0 0.0 0.0 0.00 0.33 0.00 91 1014.6
20260510092245 66 0 0.0 0.0 0.00 0.33 0.00 91 1014.6
20260510091326 66 0 0.0 0.0 0.00 0.33 0.00 91 1014.6
20260510090820 66 0 0.0 0.0 0.00 0.33 0.00 91 1014.6
20260510090730 66 0 0.0 0.0 0.00 0.33 0.00 91 1014.5
20260510085808 66 0 0.0 0.0 0.00 0.33 0.00 91 1014.4
20260510085305 66 0 0.0 0.0 0.00 0.33 0.00 91 1014.2
20260510084756 67 0 0.0 0.0 0.00 0.33 0.00 91 1014.1
20260510084250 67 0 0.0 0.0 0.00 0.33 0.00 91 1014.1
20260510083744 67 0 0.0 0.0 0.00 0.33 0.00 91 1014.1
20260510083238 67 0 0.0 0.0 0.00 0.33 0.00 91 1014.1
20260510082732 67 0 0.0 0.0 0.00 0.33 0.00 91 1014.1
20260510082225 67 0 0.0 0.0 0.00 0.33 0.00 91 1014.1
20260510081720 67 0 0.0 0.0 0.00 0.33 0.00 91 1014.0
20260510081227 67 0 0.0 0.0 0.00 0.33 0.00 91 1014.1
20260510080708 67 0 0.0 0.0 0.00 0.33 0.00 91 1014.0
20260510080203 67 0 0.0 0.0 0.00 0.33 0.00 91 1013.9
20260510075655 67 0 0.0 0.0 0.00 0.33 0.00 91 1014.0
20260510075151 67 0 0.0 0.0 0.00 0.33 0.00 91 1014.0
20260510074644 67 0 0.0 0.0 0.00 0.33 0.00 91 1013.8
20260510074139 67 0 0.0 0.0 0.00 0.33 0.00 91 1013.8
20260510073631 67 0 0.0 0.0 0.00 0.33 0.00 91 1013.6
20260510073126 67 0 0.0 0.0 0.00 0.33 0.00 91 1013.6
20260510072619 67 0 0.0 0.0 0.00 0.33 0.00 91 1013.7
20260510072113 67 0 0.0 0.0 0.00 0.33 0.00 91 1013.7
20260510071608 67 0 0.0 0.0 0.00 0.33 0.00 91 1013.8
20260510071101 67 0 0.0 0.0 0.00 0.33 0.00 91 1013.8
20260510070600 67 0 0.0 0.0 0.00 0.33 0.00 91 1013.7
20260510070103 67 0 0.0 0.0 0.00 0.33 0.00 91 1013.8
20260510065544 68 0 0.0 0.0 0.00 0.33 0.00 91 1013.9
20260510065038 68 0 0.0 0.0 0.00 0.33 0.00 91 1013.9
20260510064532 68 0 0.0 0.0 0.00 0.33 0.00 91 1013.9
20260510064026 68 0 0.0 0.0 0.00 0.33 0.00 91 1014.1
20260510063521 68 0 0.0 0.0 0.00 0.33 0.00 91 1014.3
20260510063014 68 0 0.0 0.0 0.00 0.33 0.00 91 1014.1
20260510062903 68 0 0.0 0.0 0.00 0.33 0.00 91 1014.2
20260510062002 68 0 0.0 0.0 0.00 0.33 0.00 91 1014.2
20260510061455 68 0 0.0 0.0 0.00 0.33 0.00 91 1014.3
20260510060952 68 0 0.0 0.0 0.00 0.33 0.00 91 1014.3
20260510060450 68 0 0.0 0.0 0.00 0.33 0.00 91 1014.2
20260510060344 68 0 0.0 0.0 0.00 0.33 0.00 91 1014.3
20260510055451 69 0 0.0 0.0 0.00 0.33 0.00 91 1014.4
20260510054947 69 0 0.0 0.0 0.00 0.33 0.00 91 1014.5
20260510054447 69 0 0.0 0.0 0.00 0.33 0.00 91 1014.7
20260510053948 69 0 0.0 0.0 0.00 0.33 0.00 91 1014.8
20260510053448 68 0 0.0 0.0 0.00 0.33 0.00 91 1014.7
20260510052945 68 0 0.0 0.0 0.00 0.33 0.00 91 1014.7
20260510052443 69 0 0.0 0.0 0.00 0.33 0.00 92 1014.8
20260510052333 69 0 0.0 0.0 0.00 0.33 0.00 92 1014.9
20260510051439 69 0 0.0 0.0 0.00 0.33 0.00 92 1014.9
20260510050940 69 0 0.0 0.0 0.00 0.33 0.00 92 1014.9
20260510050434 69 0 0.0 0.0 0.00 0.33 0.00 92 1014.9
20260510045931 69 0 0.0 0.0 0.00 0.33 0.00 92 1015.0
20260510045429 69 0 0.0 0.0 0.00 0.33 0.00 91 1015.0
20260510044931 69 0 0.0 0.0 0.00 0.33 0.00 91 1014.9
20260510044429 69 0 0.0 0.0 0.00 0.33 0.00 91 1014.9
20260510044325 69 0 0.0 0.0 0.00 0.33 0.00 91 1014.9
20260510043811 69 0 0.0 0.0 0.00 0.33 0.00 91 1015.0
20260510042927 69 0 0.0 0.0 0.00 0.33 0.00 91 1015.1
20260510042420 69 0 0.0 0.0 0.00 0.33 0.00 91 1015.2
20260510041915 69 0 0.0 0.0 0.00 0.33 0.00 91 1015.4
20260510041413 69 0 0.0 0.9 0.00 0.33 0.00 91 1015.4
20260510040916 69 0 0.0 0.9 0.00 0.33 0.00 91 1015.3
20260510040411 69 0 0.0 0.9 0.00 0.33 0.00 91 1015.4
20260510035907 68 0 0.0 0.9 0.00 0.33 0.33 91 1015.3
20260510035407 68 0 0.0 0.9 0.00 0.33 0.33 90 1015.3
20260510034906 68 0 0.0 0.0 0.00 0.33 0.33 90 1015.4
20260510034408 68 0 0.0 0.0 0.00 0.33 0.33 90 1015.5
20260510033904 69 0 0.0 0.0 0.00 0.33 0.33 90 1015.5
20260510033403 69 0 0.0 0.0 0.00 0.33 0.33 90 1015.4
20260510032900 69 0 0.0 0.0 0.00 0.33 0.33 90 1015.4
20260510032401 69 0 0.0 0.0 0.00 0.33 0.33 90 1015.4
20260510031857 69 0 0.0 0.0 0.00 0.33 0.33 90 1015.3
20260510031354 69 0 0.0 0.0 0.00 0.33 0.33 90 1015.3
20260510030855 69 0 0.0 0.0 0.00 0.33 0.33 90 1015.3
20260510030357 69 0 0.0 0.0 0.00 0.33 0.33 90 1015.3
20260510025857 69 0 0.0 0.0 0.00 0.33 0.33 90 1015.4
20260510025350 69 0 0.0 0.0 0.00 0.33 0.33 90 1015.3
20260510025254 69 0 0.0 0.0 0.00 0.33 0.33 90 1015.3
20260510024350 69 0 0.0 0.0 0.00 0.33 0.33 90 1015.2
20260510023844 69 0 0.0 0.0 0.00 0.33 0.33 90 1015.3
20260510023338 69 0 0.0 0.0 0.00 0.33 0.33 90 1015.2
20260510022832 69 0 0.0 0.0 0.00 0.33 0.33 90 1015.2
20260510022722 69 0 0.0 0.0 0.00 0.33 0.33 90 1015.2
20260510021821 69 0 0.0 0.0 0.00 0.33 0.33 90 1015.2
20260510021315 69 0 0.0 0.0 0.00 0.33 0.33 90 1015.1
20260510020815 69 0 0.0 0.0 0.00 0.34 0.33 90 1015.1
20260510020316 69 0 0.0 0.0 0.00 0.34 0.33 90 1015.1
20260510015818 69 0 0.0 0.0 0.00 0.34 0.33 90 1014.9
20260510015659 69 0 0.0 0.0 0.00 0.34 0.33 90 1015.2
20260510015217 69 0 0.0 0.0 0.00 0.34 0.33 90 1015.2
20260510014319 69 0 0.0 0.0 0.00 0.34 0.33 90 1014.8
20260510013815 69 0 0.0 0.0 0.00 0.34 0.33 90 1014.6
20260510013314 70 0 0.0 0.0 0.00 0.34 0.33 90 1014.4
20260510012810 70 0 0.0 0.0 0.00 0.34 0.33 90 1014.4
20260510012312 70 0 0.0 0.0 0.00 0.34 0.33 90 1014.4
20260510011812 70 0 0.0 0.0 0.00 0.34 0.33 90 1014.3
20260510011310 70 0 0.0 0.0 0.00 0.34 0.33 90 1014.1
20260510010812 70 0 0.0 0.0 0.00 0.34 0.33 90 1014.1
20260510010311 70 0 0.0 0.0 0.00 0.34 0.33 90 1014.2
20260510005806 70 0 0.0 0.0 0.00 0.34 0.33 90 1014.1
20260510005306 70 0 0.0 0.0 0.00 0.34 0.33 90 1013.9
20260510004806 70 0 0.0 0.0 0.00 0.34 0.33 90 1014.1
20260510004304 70 0 0.0 0.0 0.01 0.34 0.33 90 1014.0
20260510004148 70 0 0.0 0.0 0.01 0.34 0.33 90 1014.0
20260510003303 70 0 0.0 0.0 0.01 0.34 0.33 90 1013.9
20260510002802 70 0 0.0 0.0 0.01 0.34 0.33 90 1013.9
20260510002306 70 0 0.0 0.0 0.01 0.34 0.33 90 1014.0
20260510001801 70 0 0.0 0.0 0.01 0.34 0.33 90 1013.9
20260510001305 70 0 0.0 0.0 0.01 0.34 0.33 90 1014.0
20260510000802 70 0 0.0 0.0 0.01 0.34 0.33 90 1013.9
20260510000304 70 0 0.0 0.0 0.01 0.34 0.33 90 1014.1
20260509235758 70 0 0.0 0.0 0.01 0.34 0.33 90 1014.0
20260509235259 70 0 0.0 0.0 0.01 0.34 0.33 90 1014.0
20260509235215 70 0 0.0 0.0 0.01 0.34 0.33 90 1014.1
20260509234304 70 0 0.0 0.0 0.00 0.33 0.32 90 1014.0
20260509233806 70 0 0.0 0.0 0.00 0.33 0.32 90 1014.0
20260509233257 71 0 0.0 0.0 0.00 0.33 0.32 90 1013.9
20260509232759 71 0 0.0 0.0 0.01 0.33 0.32 90 1014.0
20260509232258 71 0 0.0 0.0 0.01 0.33 0.32 90 1014.1
20260509231807 71 0 0.0 0.0 0.01 0.33 0.32 90 1014.3
20260509231303 71 0 0.0 0.0 0.01 0.33 0.32 90 1014.4
20260509230809 71 0 0.0 0.0 0.01 0.33 0.32 90 1014.5
20260509230259 71 0 0.0 0.0 0.01 0.33 0.32 89 1014.6
20260509225758 71 0 0.0 0.0 0.01 0.33 0.32 89 1014.6
20260509225258 71 0 0.0 0.0 0.01 0.33 0.32 89 1014.7
20260509224759 71 0 0.0 0.0 0.01 0.33 0.32 89 1014.7
20260509224728 71 0 0.0 0.0 0.01 0.33 0.32 89 1014.8
20260509223758 71 0 0.0 0.0 0.01 0.33 0.32 89 1014.8
20260509223258 71 0 0.0 0.0 0.01 0.33 0.32 89 1014.7
20260509223158 71 0 0.0 0.0 0.00 0.32 0.31 89 1014.8
20260509222245 71 0 0.0 0.0 0.00 0.32 0.31 89 1014.8
20260509222217 71 0 0.0 0.0 0.00 0.32 0.31 89 1015.0
20260509221231 71 0 0.0 0.0 0.00 0.32 0.31 89 1014.9
20260509220725 71 0 0.0 0.0 0.01 0.32 0.31 89 1014.8
20260509220219 71 0 0.0 0.0 0.01 0.32 0.31 89 1014.9
20260509215714 71 0 0.0 0.0 0.01 0.32 0.31 89 1014.8
20260509215208 71 0 0.0 0.0 0.02 0.32 0.31 89 1014.8
20260509214701 71 0 0.0 0.0 0.02 0.32 0.31 89 1014.8
20260509214155 71 0 0.0 0.0 0.02 0.32 0.31 89 1014.6
20260509214047 71 0 0.0 0.0 0.02 0.32 0.31 89 1014.6
20260509213143 71 0 0.0 0.0 0.03 0.32 0.31 89 1014.5
20260509212639 71 0 0.0 0.0 0.03 0.32 0.31 89 1014.5
20260509212131 71 0 0.0 0.0 0.04 0.32 0.31 89 1014.1
20260509211627 71 0 0.0 0.0 0.05 0.32 0.31 89 1014.3
20260509211120 71 0 0.0 0.0 0.04 0.31 0.30 88 1014.3
20260509210618 71 0 0.0 0.0 0.04 0.31 0.30 88 1014.1
20260509210116 71 0 0.0 0.0 0.04 0.31 0.30 88 1014.2
20260509205602 71 0 0.0 0.0 0.04 0.31 0.30 88 1014.0
20260509205057 71 0 0.0 0.0 0.03 0.30 0.29 88 1014.0
20260509204550 71 0 0.0 0.0 0.03 0.30 0.29 87 1013.9
20260509204047 71 0 0.0 0.0 0.03 0.30 0.29 88 1014.0
20260509203538 71 0 0.0 0.0 0.02 0.29 0.29 87 1014.0
20260509203031 71 0 0.0 0.9 0.02 0.29 0.28 86 1014.0
20260509202931 71 0 0.9 2.6 0.02 0.29 0.28 86 1014.1
20260509202019 71 0 1.7 3.5 0.01 0.28 0.27 85 1014.1
20260509201514 71 0 1.7 3.5 0.00 0.27 0.26 85 1014.1
20260509201415 71 0 1.7 5.2 0.00 0.27 0.26 85 1014.0
20260509200910 72 0 1.7 5.2 0.00 0.27 0.26 85 1014.2
20260509195955 72 0 2.6 4.3 0.00 0.27 0.26 86 1014.1
20260509195449 71 0 2.6 4.3 0.00 0.27 0.26 86 1014.2
20260509194944 71 0 1.7 4.3 0.00 0.27 0.26 87 1014.1
20260509194438 71 0 2.6 5.2 0.00 0.27 0.26 87 1014.3
20260509193932 71 0 1.7 5.2 0.00 0.27 0.26 88 1014.4
20260509193427 71 0 1.7 3.5 0.00 0.27 0.26 88 1014.3
20260509192919 71 0 2.6 4.3 0.00 0.27 0.26 88 1014.3
20260509192418 71 0 2.6 5.2 0.00 0.28 0.26 87 1014.5
20260509191907 71 0 1.7 5.2 0.00 0.28 0.26 88 1014.6
20260509191817 71 0 0.9 3.5 0.00 0.31 0.26 88 1014.7
20260509190856 72 0 1.7 7.0 0.00 0.34 0.26 87 1014.6
20260509190351 72 0 2.6 7.0 0.01 0.35 0.26 87 1014.6
20260509190313 74 0 0.9 5.2 0.03 0.35 0.26 88 1014.5
20260509185341 75 0 0.0 2.6 0.05 0.35 0.26 90 1014.5
20260509184833 75 0 0.0 0.9 0.08 0.35 0.26 90 1014.3
20260509184328 75 0 0.0 2.6 0.11 0.35 0.26 90 1014.2
20260509184154 75 0 0.0 3.5 0.19 0.35 0.26 89 1014.4
20260509183951 75 0 0.0 2.6 0.14 0.35 0.26 89 1014.4
20260509182809 75 0 0.0 3.5 0.23 0.35 0.26 89 1014.3
20260509182306 75 0 0.0 1.7 0.25 0.35 0.26 89 1014.2
20260509181758 75 0 0.0 1.7 0.26 0.35 0.26 89 1014.1
20260509181252 75 0 0.0 0.9 0.26 0.35 0.26 89 1014.2
20260509180745 75 0 0.0 1.7 0.26 0.35 0.26 89 1014.2
20260509180240 74 0 0.0 1.7 0.25 0.34 0.25 88 1014.2
20260509175733 74 0 0.0 0.9 0.23 0.32 0.23 88 1014.5
20260509175228 74 0 0.0 0.9 0.20 0.29 0.21 88 1014.6
20260509174721 74 0 0.0 1.7 0.18 0.27 0.18 87 1014.5
20260509174215 75 0 0.9 3.5 0.15 0.24 0.15 87 1014.6
20260509173708 76 0 0.9 3.5 0.11 0.20 0.11 86 1014.4
20260509173203 76 0 0.9 3.5 0.06 0.15 0.07 86 1014.3
20260509172657 77 0 0.0 3.5 0.03 0.12 0.03 86 1014.2
20260509172555 78 0 0.0 3.5 0.00 0.09 0.01 85 1014.3
20260509171647 78 0 0.9 3.5 0.00 0.09 0.00 85 1014.5
20260509171529 78 0 0.9 3.5 0.00 0.09 0.00 84 1014.4
20260509170634 79 0 0.0 2.6 0.00 0.09 0.00 84 1014.3
20260509170140 79 205 0.0 3.5 0.00 0.09 0.00 84 1014.5
20260509165622 79 165 0.9 4.3 0.00 0.09 0.00 84 1014.5
20260509165116 78 186 0.9 4.3 0.00 0.09 0.00 84 1014.6
20260509164609 78 254 0.0 4.3 0.00 0.09 0.00 84 1014.6
20260509164103 78 138 0.9 3.5 0.00 0.09 0.00 84 1014.5
20260509163557 78 123 0.9 3.5 0.00 0.09 0.00 85 1014.5
20260509163052 78 151 0.0 2.6 0.00 0.09 0.00 86 1014.5
20260509162545 78 0 0.0 2.6 0.00 0.09 0.00 87 1014.5
20260509162436 78 0 0.0 2.6 0.00 0.09 0.00 87 1014.5
20260509161533 77 0 0.0 0.9 0.00 0.09 0.00 87 1014.7
20260509161027 77 0 0.0 0.9 0.00 0.09 0.00 86 1014.8
20260509160521 77 0 0.0 1.7 0.00 0.09 0.00 87 1014.6
20260509160302 77 0 0.0 0.9 0.00 0.09 0.00 87 1014.7
20260509160146 77 0 0.0 1.7 0.00 0.09 0.00 87 1014.8
20260509155003 77 0 0.0 1.7 0.00 0.09 0.00 88 1014.7
20260509154458 76 0 0.0 1.7 0.00 0.09 0.00 88 1014.7
20260509153952 76 0 0.0 1.7 0.00 0.09 0.00 89 1014.5
20260509153445 76 0 0.0 0.0 0.00 0.09 0.00 89 1014.5
20260509152940 76 0 0.0 0.9 0.00 0.09 0.00 89 1014.3
20260509152433 75 0 0.0 1.7 0.00 0.09 0.00 89 1014.1
20260509152316 75 0 0.0 1.7 0.00 0.09 0.00 89 1014.4
20260509151422 75 0 0.0 0.9 0.00 0.09 0.00 89 1014.3
20260509150915 75 0 0.0 0.9 0.00 0.09 0.00 89 1014.2
20260509150409 75 0 0.0 0.9 0.00 0.09 0.00 90 1014.1